CAPE
0 0 0 0 29 359 591 714 700 648 602 575 657 717 793 681 676 675 571 464 518 519
0 0 0 0 0 0 0 0 5 14 18 88 173 303 413 451 495 531 608 616 504 373
0 0 0 0 0 0 0 0 0 0 4 1 0 9 61 99 202 318 370 355 324 322
0 0 0 0 0 0 0 0 0 0 0 0 0 0 0 0 42 91 115 139 106 141
0 0 0 0 0 0 0 0 0 0 0 0 0 0 0 0 0 0 0 0 47 50
0 0 0 0 0 0 0 0 0 0 0 0 0 0 0 0 0 0 0 0 42 76
0 0 0 0 0 0 0 0 0 0 0 0 0 0 0 0 0 0 0 1 44 146
0 0 0 0 0 0 0 0 0 0 0 0 0 0 0 0 0 0 0 0 0 34
0 0 0 0 0 0 0 0 0 0 0 0 0 0 0 0 0 0 0 0 0 0
0 0 0 0 0 0 0 0 0 0 0 0 0 0 0 0 0 0 0 0 0 0
0 0 0 0 0 0 0 0 0 0 0 0 0 0 0 0 0 0 0 0 0 0
0 0 0 0 0 0 0 0 0 0 0 0 0 0 0 0 0 0 0 0 0 0
0 0 0 0 0 0 0 0 0 0 0 0 0 0 0 0 0 0 0 0 0 0
0 0 0 0 0 0 0 0 0 0 0 0 0 0 0 0 0 0 0 0 0 0
CIN
0 0 0 0 -271 -172 -128 -106 -117 -137 -153 -154 -110 -85 -89 -85 -100 -93 -103 -95 -96 -91
0 0 0 0 0 0 0 0 -227 -249 -329 -276 -236 -195 -159 -153 -146 -149 -117 -106 -102 -91
0 0 0 0 0 0 0 0 0 0 -173 -214 -15 -351 -305 -274 -229 -170 -147 -170 -155 -110
0 0 0 0 0 0 0 0 0 0 0 0 0 0 -44 0 -269 -236 -241 -247 -222 -163
0 0 0 0 0 0 0 0 0 0 0 0 0 0 0 0 0 0 0 0 -242 -236
0 0 0 0 0 0 0 0 0 0 0 0 0 0 0 0 0 0 0 0 -176 -163
0 0 0 0 0 0 0 0 0 0 0 0 0 0 0 0 0 0 0 -151 -158 -100
0 0 0 0 0 0 0 0 0 0 0 0 0 0 0 0 0 0 0 0 0 -162
0 0 0 0 0 0 0 0 0 0 0 0 0 0 0 0 0 0 0 0 0 0
0 0 0 0 0 0 0 0 0 0 0 0 0 0 0 0 0 0 0 0 0 0
0 0 0 0 0 0 0 0 0 0 0 0 0 0 0 0 0 0 0 0 0 0
0 0 0 0 0 0 0 0 0 0 0 0 0 0 0 0 0 0 0 0 0 0
0 0 0 0 0 0 0 0 0 0 0 0 0 0 0 0 0 0 0 0 0 0
0 0 0 0 0 0 0 0 0 0 0 0 0 0 0 0 0 0 0 0 0 0
Wind_Speed
19 20 22 22 23 24 26 27 28 29 29 29 27 26 25 25 26 27 30 28 28 30
20 22 24 24 24 23 23 22 21 24 27 28 27 26 26 26 26 26 27 29 29 27
20 20 21 22 23 23 22 22 20 19 20 22 23 24 24 25 27 27 27 27 30 29
19 19 18 19 19 20 21 21 21 20 20 20 21 22 23 25 27 29 30 30 30 31
18 18 19 20 19 19 21 21 20 20 20 21 22 22 24 27 28 32 34 34 33 32
22 22 22 21 20 19 20 21 21 20 22 22 22 24 25 27 29 32 35 35 35 38
28 25 26 26 25 21 17 17 18 18 19 21 23 25 26 28 30 32 33 35 32 37
30 29 27 27 25 23 22 19 18 19 20 20 22 24 27 29 32 35 35 35 36 36
33 30 29 26 25 24 23 22 21 22 23 24 25 26 28 31 34 36 37 39 39 39
33 32 30 29 26 25 25 26 27 26 27 29 30 31 34 36 37 39 40 40 39 39
39 37 33 30 30 29 30 31 32 33 34 35 35 37 39 42 42 42 42 40 38 38
42 43 38 36 38 37 35 37 38 39 40 41 42 41 41 44 44 44 44 40 37 38
45 46 46 46 47 45 43 46 45 45 42 42 43 42 44 43 43 44 43 41 38 38
48 48 49 49 49 46 45 46 47 48 45 42 41 43 42 44 45 43 43 42 40 39
Wind_Direction
265 270 274 275 277 275 272 271 271 273 276 279 282 283 285 289 292 296 297 300 299 295
270 274 276 278 278 277 278 276 276 276 276 277 282 283 284 289 293 296 301 301 304 300
270 276 280 281 278 276 277 277 277 280 282 281 282 286 288 291 294 294 299 304 306 304
270 277 281 282 281 278 279 279 278 279 282 284 287 288 290 292 293 293 296 302 305 301
266 274 276 279 281 279 279 280 281 283 283 286 287 289 291 292 292 292 294 297 300 303
266 269 271 275 279 282 282 279 280 283 284 287 290 291 292 293 295 296 294 295 298 293
264 267 269 270 274 278 282 284 283 285 288 289 291 290 291 295 296 297 296 296 300 292
265 267 267 268 271 274 277 280 283 285 288 293 297 295 293 292 291 290 292 296 294 296
266 265 263 263 265 269 273 276 280 281 283 286 292 295 295 293 290 288 288 288 292 290
267 265 261 262 264 267 269 273 276 278 281 283 288 292 292 291 290 288 286 287 292 292
265 264 263 262 263 265 268 270 273 275 278 282 285 288 289 288 287 284 283 287 293 294
262 263 264 262 261 263 267 269 271 273 275 278 281 285 287 287 285 283 278 284 292 294
261 261 261 262 260 262 266 268 271 274 277 280 282 283 286 288 285 281 279 279 288 291
260 260 260 262 263 265 267 268 270 273 277 280 281 283 286 285 280 278 276 276 283 288